Accueil
METAR-TAF:

METAR-TAF

Aéroports :

Épinal, France

Aéroport d'Épinal-Mirecourt

latitude: 48-19-31N, longitude: 6-04-00E, altitude: 330 m

Observation

Le bulletin a été fait il y a 19 minutes, à 11:00 UTC
Vent 12 kt de ouest/sud-ouest
Température 6°C
Humidité 87%
Pression 1012 hPa
Visibilité 10 km ou plus
Quelques nuages à une hauteur de 3000 ft
Nuages fragmentés à une hauteur de 4400 ft

METAR: LFSG 251100Z AUTO 24012KT 9999 FEW030 BKN044 06/04 Q1012

Heure: 12:19 (11:19 UTC)


TAF: absent

Observations et prévisions météorologiques de plus de 4000 aéroports (messages METAR et TAF).

Les stations disponibles sont représentées par des disques jaunes et rouges sur la carte.

Passer la souris dessus pour voir le nom de la station.

Cliquer dessus pour voir les observations et prévisions météorologiques.

Pour changer de carte: cliquez sur les boutons verts avec une croix noire pour zoomer, sur le bouton vert avec un tiret pour effectuer un zoom arrière, ou sur les flèches vertes pour les cartes adjacentes.


METAR-TAF: